Regional Weather Roundup
Issued by NWS Lake Charles, LA

Home | Current Version | Previous Version | Text Only | Print | Product List | Glossary On
Versions: 1 2 3 4 5 6 7 8 9 10 11 12 13 14 15 16 17 18 19 20 21 22 23 24 25 26 27 28 29 30 31 32 33 34 35 36 37 38 39 40 41 42 43 44 45 46 47 48 49 50
000
ASUS44 KLCH 021810
RWRLCH
RWRLCH
REGIONAL WEATHER ROUNDUP
NATIONAL WEATHER SERVICE LAKE CHARLES LA
100 PM CDT THU JUL 02 2015

Note: "fair" indicates few or no clouds below 12,000 feet with no
significant weather and/or obstructions to visibility.


ACROSS SOUTHEAST TEXAS

CITY           SKY/WX    TMP DP  RH WIND       PRES   REMARKS
BEAUMONT       MOSUNNY   90  77  65 S12       30.05F HX 103
BEAUMONT CITY  NOT AVBL
ORANGE         NOT AVBL
JASPER         NOT AVBL
$$

ACROSS CENTRAL LOUISIANA

CITY           SKY/WX    TMP DP  RH WIND       PRES   REMARKS
LEESVILLE      PTSUNNY   87  74  66 SW14      30.05F
FULLERTON        N/A     91  75  59 MISG      30.03F HX 101
ALEXANDRIA INT CLOUDY    86  74  67 SW14      30.04F
ESLER FIELD    PTSUNNY   90  75  61 SW8       30.06F HX 100
DERIDDER       NOT AVBL
OAKDALE        NOT AVBL
OPELOUSAS      NOT AVBL
$$

ACROSS SOUTHWEST AND SOUTH CENTRAL LOUISIANA

CITY           SKY/WX    TMP DP  RH WIND       PRES   REMARKS
SULPHUR        NOT AVBL
LAKE CHARLES   PTSUNNY   87  75  67 SW7       30.07S
CHENNAULT INT  PTSUNNY   88  75  66 SW13      30.07
CAMERON PHI    CLEAR     86  77  74 S12       30.10S
DEQUINCY       NOT AVBL
JENNINGS       NOT AVBL
LAFAYETTE      CLOUDY    86  75  69 SW5       30.08F
NEW IBERIA     MOSUNNY   90  75  62 SW6       30.08  HX 100
ABBEVILLE      NOT AVBL
PATTERSON      PTSUNNY   88  75  66 SW12      30.09F
SALT POINT       N/A     87  78  74 SW6       30.08F HX 100
$$

SELECTED SITES ACROSS THE REGION

CITY           SKY/WX    TMP DP  RH WIND       PRES   REMARKS
HOUSTON BUSH   CLOUDY    89  74  60 S6G18     30.03F
HOUSTON HOBBY  PTSUNNY   89  73  59 S13       30.03F
GALVESTON      MOSUNNY   89  79  72 S14       30.07S HX 104
COLLEGE STAT   PTSUNNY   87  73  62 S8        30.03F
CONROE         MOSUNNY   83  71  67 SW10      30.04F
HUNTSVILLE     PTSUNNY   87  74  64 S8        30.04F
LUFKIN         PTSUNNY   89  72  56 S8        30.05S
SHREVEPORT     PTSUNNY   88  72  58 SW10      30.01F
MONROE         CLOUDY    87  74  64 SW14      30.03F
NATCHEZ MS     PTSUNNY   86  75  70 SW12      30.07F
BATON ROUGE    PTSUNNY   88  74  63 SW9       30.08F
N.O. INTL ARPT CLOUDY    87  74  64 VRB3      30.08F
SLIDELL        CLOUDY    87  76  69 SW8       30.08F
$$

MARINE REPORTS

STATION/POSITION TIME  TEMP    WIND        PRES    VSBY  WAVE
                       AIR SEA DIR/SP/G                  HT/PER
                 (UTC) (F)     (DEG/KT/KT) (MB)    (MI)  (FT/S)
BUOY 30 S HIGH I 1750   84 83  170/ 12/ 14 1017.4F         3/ 7
SEA RIM ST PARK  1700   84     180/ 11/ 13 1018.8F
PORT ARTHUR      1700      83  190/  9/ 12 1018.4R
SABINE PASS N    1700   85 83  180/ 12/ 15 1018.5S
TEXAS POINT      NOT AVBL
CALCASIEU PASS   1700   83 83  210/ 11/ 12   N/A
LK CHARLES BEACH 1700   87 83                N/A
MARSH ISLAND     1700   87     190/  2/  4   N/A           0
FRESH WATER LOCK 1700   84 84  160/  8/  9 1019.0F
AMERADA PASS     1700   85 83  190/  3/  5 1019.3S
$$


USA.gov is the U.S. government's official web portal to all federal, state and local government web resources and services.